CES126 ZSJN-ZSNJ

Flight info

Callsign CES126
Flight time 1h 5m
Altitude 35100
Route ABTUB7Y ABTUB A593 DPX A470 OF OF54F
Aircraft B737/M-SDE2E3FGHIRWXY/LB1

Departure

Time 2026-05-05 05:30
Airport Jinan Yaoqiang International Airport (ZSJN)

Arrival

Time 2026-05-05 06:35
Airport Nanjing Lukou International Airport (ZSNJ)
Time Latitude Longitude Altitude Speed Heading
2026-05-05 05:00 36.85132 117.20891 79 ft 0 kts 235°
2026-05-05 05:15 36.85134 117.20895 87 ft 2 kts 235°
2026-05-05 05:16 36.85142 117.20912 79 ft 2 kts 251°
2026-05-05 05:16 36.85139 117.20930 74 ft 2 kts 354°
2026-05-05 05:16 36.85133 117.20930 70 ft 0 kts
2026-05-05 05:17 36.85135 117.20930 75 ft 1 kts
2026-05-05 05:17 36.85141 117.20931 75 ft 1 kts
2026-05-05 05:18 36.85150 117.20930 69 ft 2 kts 356°
2026-05-05 05:18 36.85158 117.20929 77 ft 0 kts 352°
2026-05-05 05:18 36.85160 117.20929 78 ft 2 kts 356°
2026-05-05 05:18 36.85182 117.20931 75 ft 6 kts 356°
2026-05-05 05:19 36.85248 117.20930 77 ft 10 kts
2026-05-05 05:19 36.85318 117.20932 73 ft 10 kts
2026-05-05 05:19 36.85387 117.20932 76 ft 10 kts
2026-05-05 05:19 36.85434 117.20945 77 ft 4 kts 60°
2026-05-05 05:20 36.85440 117.20976 77 ft 4 kts 88°
2026-05-05 05:20 36.85439 117.21016 76 ft 5 kts 97°
2026-05-05 05:20 36.85449 117.21055 72 ft 5 kts 55°
2026-05-05 05:20 36.85480 117.21070 75 ft 5 kts
2026-05-05 05:21 36.85519 117.21067 74 ft 6 kts 358°
2026-05-05 05:21 36.85564 117.21067 75 ft 7 kts
2026-05-05 05:21 36.85616 117.21067 76 ft 9 kts 358°
2026-05-05 05:21 36.85684 117.21069 76 ft 10 kts
2026-05-05 05:22 36.85743 117.21103 77 ft 10 kts 60°
2026-05-05 05:22 36.85745 117.21186 79 ft 10 kts 95°
2026-05-05 05:22 36.85745 117.21267 79 ft 9 kts 91°
2026-05-05 05:22 36.85763 117.21342 83 ft 9 kts 53°
2026-05-05 05:23 36.85820 117.21370 81 ft 9 kts 14°
2026-05-05 05:23 36.85880 117.21371 82 ft 9 kts 359°
2026-05-05 05:23 36.85939 117.21370 82 ft 8 kts
2026-05-05 05:23 36.85996 117.21371 81 ft 8 kts
2026-05-05 05:24 36.86056 117.21372 82 ft 9 kts
2026-05-05 05:24 36.86125 117.21373 76 ft 11 kts
2026-05-05 05:24 36.86215 117.21375 74 ft 15 kts
2026-05-05 05:24 36.86318 117.21376 76 ft 15 kts
2026-05-05 05:25 36.86417 117.21378 74 ft 14 kts
2026-05-05 05:25 36.86512 117.21379 72 ft 13 kts
2026-05-05 05:25 36.86602 117.21380 74 ft 13 kts 355°
2026-05-05 05:25 36.86690 117.21373 75 ft 13 kts 357°
2026-05-05 05:26 36.86776 117.21368 73 ft 12 kts 358°
2026-05-05 05:26 36.86859 117.21365 75 ft 12 kts 359°
2026-05-05 05:26 36.86940 117.21364 73 ft 12 kts 360°
2026-05-05 05:26 36.87020 117.21365 75 ft 11 kts
2026-05-05 05:27 36.87097 117.21365 81 ft 11 kts
2026-05-05 05:27 36.87216 117.21363 81 ft 19 kts 359°
2026-05-05 05:27 36.87336 117.21429 81 ft 7 kts 80°
2026-05-05 05:28 36.87340 117.21489 80 ft 7 kts 95°
2026-05-05 05:28 36.87338 117.21549 81 ft 7 kts 108°
2026-05-05 05:28 36.87302 117.21585 82 ft 7 kts 155°
2026-05-05 05:28 36.87251 117.21595 83 ft 15 kts 176°
2026-05-05 05:29 36.86874 117.21596 69 ft 92 kts 181°
2026-05-05 05:29 36.86008 117.21569 103 ft 152 kts 185°
2026-05-05 05:29 36.84996 117.21352 118 ft 139 kts 208°
2026-05-05 05:29 36.83984 117.20697 154 ft 184 kts 196°
2026-05-05 05:30 36.82733 117.20701 956 ft 192 kts 182°
2026-05-05 05:30 36.81606 117.19905 1282 ft 187 kts 211°
2026-05-05 05:30 36.80509 117.19161 2295 ft 180 kts 201°
2026-05-05 05:30 36.79216 117.18841 2696 ft 204 kts 186°
2026-05-05 05:31 36.77777 117.19345 3045 ft 234 kts 156°
2026-05-05 05:31 36.76256 117.20367 3024 ft 257 kts 152°
2026-05-05 05:31 36.74671 117.21412 3009 ft 258 kts 160°
2026-05-05 05:31 36.73041 117.22282 2995 ft 251 kts 162°
2026-05-05 05:32 36.71433 117.23076 3007 ft 246 kts 167°
2026-05-05 05:32 36.69801 117.23643 3072 ft 241 kts 169°
2026-05-05 05:32 36.68142 117.24098 3387 ft 249 kts 176°
2026-05-05 05:32 36.66442 117.24409 4541 ft 247 kts 173°
2026-05-05 05:33 36.64764 117.24817 5559 ft 253 kts 172°
2026-05-05 05:33 36.63023 117.25231 6562 ft 257 kts 173°
2026-05-05 05:33 36.61266 117.25626 7602 ft 255 kts 173°
2026-05-05 05:33 36.59480 117.26005 8462 ft 263 kts 173°
2026-05-05 05:34 36.57667 117.26374 9405 ft 267 kts 173°
2026-05-05 05:34 36.55862 117.26737 10132 ft 261 kts 174°
2026-05-05 05:34 36.54029 117.27087 10587 ft 272 kts 174°
2026-05-05 05:34 36.52060 117.27449 10852 ft 299 kts 173°
2026-05-05 05:35 36.49896 117.27843 11005 ft 329 kts 173°
2026-05-05 05:35 36.48369 117.28122 11314 ft 339 kts 173°
2026-05-05 05:35 36.45261 117.28691 12383 ft 346 kts 173°
2026-05-05 05:35 36.42857 117.29129 13211 ft 350 kts 173°
2026-05-05 05:36 36.40422 117.29572 13958 ft 358 kts 173°
2026-05-05 05:36 36.37917 117.30023 14553 ft 368 kts 173°
2026-05-05 05:36 36.35367 117.30480 15338 ft 373 kts 173°
2026-05-05 05:36 36.32773 117.30949 16072 ft 380 kts 173°
2026-05-05 05:37 36.30145 117.31423 16829 ft 385 kts 173°
2026-05-05 05:37 36.27498 117.31897 17462 ft 394 kts 173°
2026-05-05 05:37 36.24763 117.32390 18188 ft 399 kts 172°
2026-05-05 05:37 36.21999 117.32886 18811 ft 404 kts 172°
2026-05-05 05:38 36.19198 117.33388 19428 ft 410 kts 172°
2026-05-05 05:38 36.17318 117.33725 19820 ft 415 kts 172°
2026-05-05 05:38 36.13463 117.34415 20663 ft 422 kts 172°
2026-05-05 05:38 36.11523 117.34761 20929 ft 429 kts 172°
2026-05-05 05:39 36.07581 117.35465 22030 ft 427 kts 172°
2026-05-05 05:39 36.04666 117.35985 22706 ft 431 kts 172°
2026-05-05 05:39 36.02649 117.36345 23006 ft 437 kts 172°
2026-05-05 05:39 35.98639 117.37220 23620 ft 446 kts 165°
2026-05-05 05:40 35.96614 117.37915 23947 ft 448 kts 163°
2026-05-05 05:40 35.93664 117.39028 24475 ft 451 kts 162°
2026-05-05 05:40 35.89646 117.40604 25187 ft 454 kts 162°
2026-05-05 05:40 35.87648 117.41388 25474 ft 458 kts 162°
2026-05-05 05:41 35.83554 117.42972 26040 ft 463 kts 162°
2026-05-05 05:41 35.81516 117.43749 26429 ft 463 kts 162°
2026-05-05 05:41 35.78421 117.44917 26898 ft 467 kts 162°
2026-05-05 05:41 35.75302 117.46084 27304 ft 471 kts 162°
2026-05-05 05:42 35.72149 117.47260 27710 ft 475 kts 162°
2026-05-05 05:42 35.67947 117.48823 28342 ft 478 kts 162°
2026-05-05 05:42 35.65836 117.49607 28638 ft 479 kts 162°
2026-05-05 05:42 35.61872 117.51080 29143 ft 477 kts 162°
2026-05-05 05:43 35.59776 117.51858 29407 ft 475 kts 162°
2026-05-05 05:43 35.56624 117.53026 29780 ft 472 kts 162°
2026-05-05 05:43 35.53489 117.54186 30102 ft 470 kts 162°
2026-05-05 05:43 35.50366 117.55342 30392 ft 468 kts 162°
2026-05-05 05:44 35.47254 117.56493 30668 ft 466 kts 162°
2026-05-05 05:44 35.44153 117.57641 30932 ft 465 kts 162°
2026-05-05 05:44 35.41095 117.58773 31186 ft 465 kts 162°
2026-05-05 05:44 35.38002 117.59921 31433 ft 464 kts 162°
2026-05-05 05:45 35.34913 117.61068 31672 ft 464 kts 162°
2026-05-05 05:45 35.32293 117.62044 31868 ft 463 kts 162°
2026-05-05 05:45 35.29208 117.63192 32097 ft 463 kts 162°
2026-05-05 05:45 35.26122 117.64341 32325 ft 463 kts 162°
2026-05-05 05:46 35.23037 117.65481 32525 ft 463 kts 163°
2026-05-05 05:46 35.19951 117.66609 32735 ft 463 kts 163°
2026-05-05 05:46 35.16861 117.67734 32934 ft 463 kts 163°
2026-05-05 05:46 35.13772 117.68861 33129 ft 463 kts 163°
2026-05-05 05:47 35.10730 117.69972 33321 ft 463 kts 163°
2026-05-05 05:47 35.07639 117.71101 33507 ft 464 kts 163°
2026-05-05 05:47 35.04547 117.72230 33698 ft 464 kts 163°
2026-05-05 05:47 35.01454 117.73358 33893 ft 464 kts 163°
2026-05-05 05:48 34.98359 117.74485 34033 ft 464 kts 163°
2026-05-05 05:48 34.95260 117.75613 34181 ft 465 kts 163°
2026-05-05 05:48 34.92161 117.76742 34320 ft 465 kts 163°
2026-05-05 05:48 34.89060 117.77870 34456 ft 465 kts 163°
2026-05-05 05:49 34.85996 117.78983 34589 ft 466 kts 163°
2026-05-05 05:49 34.82890 117.80105 34726 ft 466 kts 164°
2026-05-05 05:49 34.79778 117.81209 34876 ft 465 kts 164°
2026-05-05 05:49 34.76672 117.82319 35011 ft 467 kts 164°
2026-05-05 05:50 34.70345 117.84591 35004 ft 479 kts 164°
2026-05-05 05:50 34.63938 117.86894 34994 ft 481 kts 164°
2026-05-05 05:51 34.57561 117.89180 34994 ft 481 kts 164°
2026-05-05 05:51 34.51143 117.91477 35002 ft 480 kts 164°
2026-05-05 05:52 34.44739 117.93765 34990 ft 480 kts 164°
2026-05-05 05:52 34.38346 117.96045 34999 ft 478 kts 164°
2026-05-05 05:53 34.32016 117.98300 34998 ft 477 kts 165°
2026-05-05 05:53 34.25606 118.00587 35013 ft 484 kts 164°
2026-05-05 05:54 34.19709 118.02747 35002 ft 486 kts 164°
2026-05-05 05:54 34.15744 118.04202 35012 ft 486 kts 164°
2026-05-05 05:55 34.09271 118.06578 35002 ft 486 kts 164°
2026-05-05 05:55 34.02848 118.08926 35001 ft 485 kts 165°
2026-05-05 05:56 33.96386 118.11285 35007 ft 485 kts 164°
2026-05-05 05:56 33.89939 118.13644 35007 ft 484 kts 164°
2026-05-05 05:57 33.83502 118.15996 35008 ft 483 kts 164°
2026-05-05 05:57 33.77118 118.18323 35011 ft 482 kts 165°
2026-05-05 05:58 33.70703 118.20661 35019 ft 482 kts 165°
2026-05-05 05:58 33.64305 118.22989 35019 ft 481 kts 165°
2026-05-05 05:59 33.57897 118.25318 35017 ft 481 kts 165°
2026-05-05 05:59 33.51499 118.27640 35021 ft 480 kts 165°
2026-05-05 06:00 33.45146 118.29941 35018 ft 480 kts 165°
2026-05-05 06:00 33.38748 118.32256 35032 ft 480 kts 165°
2026-05-05 06:01 33.32352 118.34566 35026 ft 480 kts 165°
2026-05-05 06:01 33.25954 118.36875 35028 ft 480 kts 165°
2026-05-05 06:02 33.19601 118.39160 35034 ft 480 kts 166°
2026-05-05 06:02 33.13205 118.41451 35035 ft 480 kts 166°
2026-05-05 06:03 33.06802 118.43739 34666 ft 486 kts 165°
2026-05-05 06:03 33.03548 118.44900 33969 ft 488 kts 165°
2026-05-05 06:03 33.00298 118.46061 33094 ft 488 kts 165°
2026-05-05 06:04 32.97046 118.47222 32197 ft 488 kts 165°
2026-05-05 06:04 32.93838 118.48367 31324 ft 488 kts 165°
2026-05-05 06:04 32.90584 118.49527 30409 ft 488 kts 165°
2026-05-05 06:04 32.87331 118.50685 29590 ft 485 kts 165°
2026-05-05 06:05 32.84119 118.51829 28835 ft 479 kts 165°
2026-05-05 06:05 32.80956 118.52955 28156 ft 471 kts 165°
2026-05-05 06:05 32.77838 118.54063 27473 ft 464 kts 165°
2026-05-05 06:05 32.74762 118.55155 26793 ft 458 kts 165°
2026-05-05 06:06 32.71725 118.56232 26129 ft 453 kts 165°
2026-05-05 06:06 32.68743 118.57289 25479 ft 448 kts 165°
2026-05-05 06:06 32.65798 118.58326 24886 ft 442 kts 166°
2026-05-05 06:06 32.62894 118.59324 24313 ft 436 kts 166°
2026-05-05 06:07 32.59992 118.60306 23683 ft 432 kts 166°
2026-05-05 06:07 32.57114 118.61277 22943 ft 429 kts 166°
2026-05-05 06:07 32.54257 118.62241 22238 ft 424 kts 166°
2026-05-05 06:07 32.51456 118.63188 21583 ft 420 kts 166°
2026-05-05 06:08 32.48637 118.64142 20921 ft 415 kts 166°
2026-05-05 06:08 32.45912 118.65065 20299 ft 411 kts 166°
2026-05-05 06:08 32.43171 118.65994 19670 ft 407 kts 166°
2026-05-05 06:08 32.40460 118.66912 19034 ft 404 kts 166°
2026-05-05 06:09 32.37769 118.67823 18396 ft 401 kts 166°
2026-05-05 06:09 32.35097 118.68727 17686 ft 399 kts 166°
2026-05-05 06:09 32.32435 118.69626 17019 ft 395 kts 166°
2026-05-05 06:09 32.29807 118.70513 16380 ft 391 kts 166°
2026-05-05 06:10 32.27238 118.71381 15766 ft 387 kts 166°
2026-05-05 06:10 32.24658 118.72252 15156 ft 384 kts 166°
2026-05-05 06:10 32.22105 118.73112 14543 ft 381 kts 166°
2026-05-05 06:10 32.19566 118.73967 13946 ft 377 kts 166°
2026-05-05 06:11 32.17055 118.74813 13311 ft 374 kts 166°
2026-05-05 06:11 32.14565 118.75651 12675 ft 370 kts 166°
2026-05-05 06:11 32.12104 118.76479 12058 ft 366 kts 166°
2026-05-05 06:11 32.09667 118.77296 11453 ft 362 kts 166°
2026-05-05 06:12 32.07261 118.78102 10848 ft 358 kts 166°
2026-05-05 06:12 32.04928 118.78884 10575 ft 345 kts 166°
2026-05-05 06:12 32.02678 118.79637 10418 ft 329 kts 166°
2026-05-05 06:12 32.00529 118.80355 10278 ft 314 kts 166°
2026-05-05 06:13 31.98468 118.81041 10138 ft 301 kts 166°
2026-05-05 06:13 31.96480 118.81681 9933 ft 292 kts 166°
2026-05-05 06:13 31.94572 118.82288 9916 ft 276 kts 167°
2026-05-05 06:13 31.92689 118.82886 9308 ft 282 kts 167°
2026-05-05 06:14 31.90820 118.83483 8852 ft 282 kts 166°
2026-05-05 06:14 31.89012 118.84342 8438 ft 284 kts 146°
2026-05-05 06:14 31.87722 118.86039 8324 ft 276 kts 121°
2026-05-05 06:14 31.87136 118.88179 7971 ft 280 kts 97°
2026-05-05 06:15 31.87312 118.90454 7634 ft 282 kts 76°
2026-05-05 06:15 31.88178 118.92526 7315 ft 283 kts 60°
2026-05-05 06:15 31.89235 118.94478 6976 ft 282 kts 60°
2026-05-05 06:15 31.90283 118.96400 6778 ft 276 kts 60°
2026-05-05 06:16 31.91295 118.98276 6597 ft 269 kts 61°
2026-05-05 06:16 31.92281 119.00122 6383 ft 264 kts 61°
2026-05-05 06:16 31.93239 119.01918 6290 ft 254 kts 62°
2026-05-05 06:16 31.93819 119.03756 6158 ft 235 kts 91°
2026-05-05 06:17 31.93564 119.05536 5983 ft 215 kts 118°
2026-05-05 06:17 31.92802 119.06975 5756 ft 206 kts 136°
2026-05-05 06:17 31.91685 119.08014 5513 ft 202 kts 151°
2026-05-05 06:17 31.90492 119.08883 5293 ft 203 kts 151°
2026-05-05 06:18 31.89300 119.09749 5029 ft 201 kts 151°
2026-05-05 06:18 31.88114 119.10614 4818 ft 201 kts 151°
2026-05-05 06:18 31.86815 119.11123 4530 ft 195 kts 185°
2026-05-05 06:18 31.85576 119.10733 4353 ft 179 kts 205°
2026-05-05 06:19 31.84713 119.09803 4105 ft 167 kts 234°
2026-05-05 06:19 31.84111 119.08686 3919 ft 158 kts 233°
2026-05-05 06:19 31.83539 119.07632 3737 ft 148 kts 234°
2026-05-05 06:19 31.82944 119.06534 3673 ft 180 kts 234°
2026-05-05 06:20 31.82254 119.05245 3621 ft 188 kts 236°
2026-05-05 06:20 31.81557 119.03915 3190 ft 188 kts 236°
2026-05-05 06:20 31.80877 119.02638 2899 ft 181 kts 236°
2026-05-05 06:20 31.80216 119.01408 2685 ft 172 kts 236°
2026-05-05 06:21 31.79600 119.00275 2461 ft 163 kts 236°
2026-05-05 06:21 31.79041 118.99165 2230 ft 151 kts 238°
2026-05-05 06:21 31.78455 118.98204 2050 ft 143 kts 236°
2026-05-05 06:21 31.77810 118.97349 1901 ft 142 kts 229°
2026-05-05 06:22 31.77509 118.96226 1721 ft 145 kts 261°
2026-05-05 06:22 31.77192 118.95103 1447 ft 146 kts 226°
2026-05-05 06:22 31.76520 118.94117 1664 ft 166 kts 232°
2026-05-05 06:22 31.75848 118.92998 1922 ft 172 kts 232°
2026-05-05 06:23 31.75111 118.92002 2007 ft 157 kts 223°
2026-05-05 06:23 31.74311 118.91100 2004 ft 158 kts 204°
2026-05-05 06:23 31.73259 118.91047 2006 ft 155 kts 158°
2026-05-05 06:23 31.72400 118.91812 1973 ft 155 kts 137°
2026-05-05 06:24 31.71936 118.92907 1952 ft 154 kts 96°
2026-05-05 06:24 31.72225 118.94139 1998 ft 163 kts 71°
2026-05-05 06:24 31.72648 118.95391 1965 ft 164 kts 72°
2026-05-05 06:24 31.73052 118.96632 1952 ft 161 kts 73°
2026-05-05 06:25 31.73430 118.97835 1952 ft 159 kts 73°
2026-05-05 06:25 31.73803 118.99062 1968 ft 161 kts 75°
2026-05-05 06:25 31.74177 119.00317 1948 ft 162 kts 74°
2026-05-05 06:25 31.74539 119.01563 1947 ft 160 kts 75°
2026-05-05 06:26 31.74893 119.02794 1975 ft 161 kts 75°
2026-05-05 06:26 31.75266 119.04133 1993 ft 185 kts 75°
2026-05-05 06:26 31.75677 119.05598 1962 ft 193 kts 74°
2026-05-05 06:26 31.76114 119.07179 1966 ft 211 kts 75°
2026-05-05 06:27 31.76567 119.08825 1962 ft 212 kts 73°
2026-05-05 06:27 31.77605 119.12066 1957 ft 216 kts 54°
2026-05-05 06:27 31.78804 119.13082 1963 ft 214 kts 17°
2026-05-05 06:28 31.80214 119.13099 1985 ft 197 kts 341°
2026-05-05 06:28 31.81430 119.12543 1963 ft 179 kts 336°
2026-05-05 06:28 31.82555 119.11970 1964 ft 173 kts 335°
2026-05-05 06:28 31.83662 119.11404 1965 ft 173 kts 329°
2026-05-05 06:29 31.84402 119.10446 1951 ft 158 kts 276°
2026-05-05 06:29 31.84190 119.09213 1981 ft 158 kts 239°
2026-05-05 06:29 31.83675 119.08046 1989 ft 164 kts 238°
2026-05-05 06:29 31.83101 119.06864 2009 ft 169 kts 237°
2026-05-05 06:30 31.82487 119.05678 1966 ft 168 kts 236°
2026-05-05 06:30 31.81877 119.04531 1966 ft 163 kts 235°
2026-05-05 06:30 31.81273 119.03401 1961 ft 164 kts 236°
2026-05-05 06:30 31.80672 119.02271 1946 ft 162 kts 235°
2026-05-05 06:31 31.80079 119.01165 1957 ft 160 kts 235°
2026-05-05 06:31 31.79485 119.00058 1973 ft 165 kts 236°
2026-05-05 06:31 31.78873 118.98910 1963 ft 166 kts 237°
2026-05-05 06:31 31.78260 118.97761 1903 ft 166 kts 234°
2026-05-05 06:32 31.77639 118.96602 1702 ft 168 kts 234°
2026-05-05 06:32 31.77038 118.95474 1495 ft 158 kts 234°
2026-05-05 06:32 31.76445 118.94370 1325 ft 162 kts 235°
2026-05-05 06:32 31.75862 118.93264 1105 ft 154 kts 235°
2026-05-05 06:33 31.75317 118.92224 913 ft 144 kts 234°
2026-05-05 06:33 31.74801 118.91270 698 ft 136 kts 234°
2026-05-05 06:33 31.74279 118.90291 546 ft 142 kts 235°
2026-05-05 06:33 31.73761 118.89318 351 ft 143 kts 234°
2026-05-05 06:34 31.73220 118.88306 212 ft 147 kts 235°
2026-05-05 06:34 31.72686 118.87287 87 ft 145 kts 236°
2026-05-05 06:34 31.72172 118.86370 57 ft 119 kts 237°
2026-05-05 06:34 31.71818 118.85693 55 ft 76 kts 238°
2026-05-05 06:35 31.71622 118.85328 51 ft 25 kts 237°
2026-05-05 06:35 31.71628 118.85249 51 ft 17 kts 321°
2026-05-05 06:36 31.71647 118.85178 54 ft 9 kts 262°
2026-05-05 06:37 31.71675 118.85124 53 ft 10 kts 322°
2026-05-05 06:37 31.71720 118.85143 52 ft 4 kts 44°
2026-05-05 06:37 31.71733 118.85163 53 ft 4 kts 48°
2026-05-05 06:41 31.71738 118.85169 57 ft 5 kts 46°
2026-05-05 06:41 31.71784 118.85207 51 ft 10 kts 27°
2026-05-05 06:42 31.71785 118.85208 51 ft 10 kts 26°
2026-05-05 06:42 31.71817 118.85221 51 ft 10 kts 15°
2026-05-05 06:42 31.71886 118.85270 51 ft 16 kts 54°
2026-05-05 06:43 31.71953 118.85383 54 ft 13 kts 60°
2026-05-05 06:43 31.71977 118.85496 54 ft 12 kts 77°
2026-05-05 06:43 31.72008 118.85563 56 ft 10 kts 94°
2026-05-05 06:43 31.72004 118.85652 52 ft 12 kts 93°
2026-05-05 06:44 31.71990 118.85765 57 ft 11 kts 109°